TimeCDT,TemperatureF,Dew PointF,Humidity,Sea Level PressureIn,VisibilityMPH,Wind Direction,Wind SpeedMPH,Gust SpeedMPH,PrecipitationIn,Events,Conditions,WindDirDegrees,DateUTC
12:54 AM,28.0,26.1,92,29.82,1.8,North,21.9,-,0.00,Snow,Light Snow,350,2013-04-15 05:54:00
1:02 AM,28.4,26.6,93,29.75,2.0,NNW,21.9,-,0.00,Snow,Light Snow,340,2013-04-15 06:02:00
1:09 AM,28.4,26.6,93,29.75,1.8,North,20.7,27.6,0.00,Snow,Light Snow,350,2013-04-15 06:09:00
1:54 AM,28.0,25.0,88,29.81,1.5,NNW,20.7,-,0.00,Snow,Light Snow,340,2013-04-15 06:54:00
2:24 AM,28.4,24.8,86,29.74,2.5,NNW,18.4,-,0.00,Snow,Light Snow,340,2013-04-15 07:24:00
2:29 AM,28.4,24.8,86,29.74,4.0,NNW,19.6,-,0.00,Snow,Light Snow,340,2013-04-15 07:29:00
2:54 AM,28.9,24.1,82,29.80,9.0,NNW,19.6,-,0.00,,Overcast,340,2013-04-15 07:54:00
3:54 AM,28.0,25.0,88,29.80,7.0,NNW,20.7,-,N/A,,Overcast,330,2013-04-15 08:54:00
4:22 AM,28.4,24.8,86,29.73,2.5,NNW,20.7,-,0.00,Snow,Light Snow,330,2013-04-15 09:22:00
4:40 AM,28.4,24.8,86,29.73,2.0,NNW,20.7,-,0.00,Snow,Light Snow,330,2013-04-15 09:40:00
4:54 AM,28.0,25.0,88,29.80,1.5,NNW,23.0,-,0.00,Snow,Light Snow,330,2013-04-15 09:54:00
5:28 AM,28.4,26.6,93,29.73,1.5,NNW,21.9,-,0.00,Snow,Light Snow,330,2013-04-15 10:28:00
5:54 AM,28.0,26.1,92,29.81,1.2,NNW,20.7,-,0.00,Snow,Light Snow,330,2013-04-15 10:54:00
6:51 AM,28.4,26.6,93,29.74,1.5,NNW,18.4,-,0.00,Snow,Light Snow,330,2013-04-15 11:51:00
6:54 AM,28.9,27.0,92,29.81,1.5,NNW,18.4,-,0.00,Snow,Light Snow,330,2013-04-15 11:54:00
7:13 AM,28.4,26.6,93,29.75,0.5,NNW,20.7,-,0.01,Fog-Snow,Snow,330,2013-04-15 12:13:00
7:20 AM,28.4,26.6,93,29.75,0.5,NNW,20.7,-,0.01,Fog-Snow,Snow,330,2013-04-15 12:20:00
7:54 AM,28.9,27.0,92,29.83,0.8,NW,19.6,-,0.01,Snow,Light Snow,320,2013-04-15 12:54:00
8:05 AM,28.4,26.6,93,29.76,1.0,NW,18.4,-,0.00,Snow,Light Snow,320,2013-04-15 13:05:00
8:13 AM,28.4,26.6,93,29.76,1.0,NW,19.6,-,0.00,Snow,Light Snow,320,2013-04-15 13:13:00
8:32 AM,28.4,26.6,93,29.77,0.8,NNW,19.6,-,0.00,Snow,Light Snow,330,2013-04-15 13:32:00
8:44 AM,28.4,26.6,93,29.77,1.0,NNW,19.6,-,0.00,Snow,Light Snow,330,2013-04-15 13:44:00
8:54 AM,28.9,27.0,92,29.83,1.0,NNW,20.7,-,0.00,Snow,Light Snow,330,2013-04-15 13:54:00
9:15 AM,28.4,26.6,93,29.77,0.8,NNW,20.7,-,0.00,Snow,Light Snow,330,2013-04-15 14:15:00
9:33 AM,28.4,26.6,93,29.77,0.8,NNW,20.7,-,0.00,Snow,Light Snow,330,2013-04-15 14:33:00
9:43 AM,30.2,26.6,86,29.77,1.2,NNW,21.9,-,0.00,Snow,Light Snow,330,2013-04-15 14:43:00
9:50 AM,30.2,26.6,86,29.77,1.5,NNW,23.0,-,0.00,Snow,Light Snow,330,2013-04-15 14:50:00
9:54 AM,30.0,27.0,88,29.84,1.8,NNW,21.9,-,0.00,Snow,Light Snow,330,2013-04-15 14:54:00
9:57 AM,30.2,26.6,86,29.77,2.0,NNW,19.6,27.6,0.00,Snow,Light Snow,330,2013-04-15 14:57:00
10:12 AM,30.2,26.6,86,29.78,1.8,NW,18.4,-,0.00,Snow,Light Snow,320,2013-04-15 15:12:00
10:28 AM,30.2,26.6,86,29.79,1.5,NW,18.4,-,0.00,Snow,Light Snow,320,2013-04-15 15:28:00
10:54 AM,30.0,27.0,88,29.86,1.2,NNW,21.9,-,0.00,Snow,Light Snow,330,2013-04-15 15:54:00
11:01 AM,30.2,26.6,86,29.79,1.0,NNW,21.9,-,0.00,Snow,Light Snow,330,2013-04-15 16:01:00
11:28 AM,30.2,26.6,86,29.81,1.0,NNW,24.2,-,0.01,Snow,Light Snow,330,2013-04-15 16:28:00
11:54 AM,30.0,26.1,85,29.88,1.5,NNW,20.7,-,0.01,Snow,Light Snow,330,2013-04-15 16:54:00
12:00 PM,30.2,26.6,86,29.82,2.0,NNW,21.9,-,0.00,Snow,Light Snow,340,2013-04-15 17:00:00
12:16 PM,30.2,26.6,86,29.83,3.0,NNW,21.9,-,0.00,Snow,Light Snow,330,2013-04-15 17:16:00
12:28 PM,30.2,26.6,86,29.83,2.5,NNW,24.2,-,0.00,Snow,Light Snow,340,2013-04-15 17:28:00
12:54 PM,30.0,26.1,85,29.92,2.0,NW,20.7,-,0.00,Snow,Light Snow,320,2013-04-15 17:54:00
1:00 PM,28.4,24.8,86,29.85,1.8,NNW,19.6,-,0.00,Snow,Light Snow,330,2013-04-15 18:00:00
1:13 PM,28.4,24.8,86,29.85,1.8,NNW,18.4,-,0.00,Snow,Light Snow,330,2013-04-15 18:13:00
1:21 PM,28.4,24.8,86,29.86,2.0,NNW,18.4,-,0.00,Snow,Light Snow,330,2013-04-15 18:21:00
1:27 PM,28.4,24.8,86,29.86,1.8,NNW,18.4,-,0.00,Snow,Light Snow,330,2013-04-15 18:27:00
1:36 PM,28.4,24.8,86,29.86,2.0,NNW,17.3,-,0.00,Snow,Light Snow,330,2013-04-15 18:36:00
1:54 PM,28.9,24.1,82,29.94,1.8,NNW,18.4,-,0.00,Snow,Light Snow,330,2013-04-15 18:54:00
2:11 PM,28.4,24.8,86,29.87,2.0,NNW,13.8,-,0.00,Snow,Light Snow,330,2013-04-15 19:11:00
2:27 PM,28.4,24.8,86,29.88,1.8,NW,15.0,-,0.00,Snow,Light Snow,320,2013-04-15 19:27:00
2:54 PM,28.9,24.1,82,29.96,1.8,NNW,16.1,-,0.00,Snow,Light Snow,340,2013-04-15 19:54:00
3:01 PM,28.4,24.8,86,29.89,1.0,NNW,17.3,-,0.00,Snow,Light Snow,330,2013-04-15 20:01:00
3:13 PM,28.4,26.6,93,29.89,0.8,NNW,15.0,-,0.00,Snow,Light Snow,330,2013-04-15 20:13:00
3:23 PM,28.4,24.8,86,29.90,1.0,NNW,16.1,-,0.00,Snow,Light Snow,340,2013-04-15 20:23:00
3:45 PM,28.4,24.8,86,29.90,2.0,NNW,15.0,-,0.00,Snow,Light Snow,330,2013-04-15 20:45:00
3:54 PM,30.0,25.0,82,29.97,4.0,NNW,13.8,-,0.00,Snow,Light Snow,330,2013-04-15 20:54:00
4:42 PM,30.2,24.8,80,29.91,10.0,NW,16.1,-,0.00,,Overcast,320,2013-04-15 21:42:00
4:54 PM,30.0,25.0,82,29.98,9.0,NNW,16.1,-,0.00,,Overcast,330,2013-04-15 21:54:00
5:54 PM,28.9,25.0,85,29.99,10.0,NNW,15.0,-,N/A,,Overcast,330,2013-04-15 22:54:00
6:27 PM,28.4,24.8,86,29.93,10.0,NNW,13.8,-,N/A,,Mostly Cloudy,330,2013-04-15 23:27:00
6:54 PM,28.0,23.0,81,30.01,10.0,NNW,13.8,-,N/A,,Overcast,330,2013-04-15 23:54:00
7:50 PM,26.6,24.8,93,29.96,10.0,NNW,9.2,-,N/A,,Overcast,340,2013-04-16 00:50:00
7:54 PM,27.0,24.1,89,30.04,10.0,North,8.1,-,N/A,,Overcast,350,2013-04-16 00:54:00
8:09 PM,26.6,23.0,86,29.97,10.0,NNW,10.4,-,N/A,,Overcast,340,2013-04-16 01:09:00
8:47 PM,26.6,23.0,86,29.99,10.0,NNW,11.5,-,N/A,,Overcast,340,2013-04-16 01:47:00
8:54 PM,26.1,21.9,84,30.07,10.0,NNW,10.4,-,0.00,Snow,Light Snow,340,2013-04-16 01:54:00
9:13 PM,26.6,23.0,86,30.00,3.0,NNW,9.2,-,N/A,Snow,Light Snow,340,2013-04-16 02:13:00
9:54 PM,25.0,23.0,92,30.10,4.0,NNW,8.1,-,0.00,Snow,Light Snow,330,2013-04-16 02:54:00
10:54 PM,25.0,23.0,92,30.12,3.0,NW,4.6,-,0.00,Snow,Light Snow,310,2013-04-16 03:54:00
11:03 PM,24.8,23.0,93,30.05,2.5,NW,5.8,-,0.00,Snow,Light Snow,320,2013-04-16 04:03:00
11:10 PM,24.8,23.0,93,30.05,3.0,NW,8.1,-,0.00,Snow,Light Snow,320,2013-04-16 04:10:00
11:39 PM,24.8,23.0,93,30.06,1.8,NW,8.1,-,0.01,Snow,Light Snow,310,2013-04-16 04:39:00
11:54 PM,25.0,21.9,88,30.13,2.5,NW,8.1,-,0.01,Snow,Light Snow,320,2013-04-16 04:54:00